Regional Weather Roundup
Issued by NWS

Home | Current Version | Previous Version | Text Only | Print | Product List | Glossary Off
Versions: 1 2 3 4 5 6 7 8 9 10 11 12 13 14 15 16 17 18 19 20 21 22 23 24 25 26 27 28 29 30 31 32 33 34 35 36 37 38 39 40 41 42 43 44 45 46 47 48 49 50

000
ASUS43 KIND 201109
RWRIN

WEATHER ROUNDUP FOR INDIANA
NATIONAL WEATHER SERVICE INDIANAPOLIS IN
700 AM EDT SUN AUG 20 2017

NOTE: "FAIR" INDICATES FEW OR NO CLOUDS BELOW 12,000 FEET WITH NO
SIGNIFICANT WEATHER AND/OR OBSTRUCTIONS TO VISIBILITY.

* - STATION DOES NOT REPORT WEATHER SUCH AS PRECIPITATION OR FOG.

+ - STATION NOT QUALITY CONTROLLED BY THE NATIONAL WEATHER SERVICE.
    USE DATA WITH CAUTION...ESPECIALLY DEWPOINT AND RELATIVE
    HUMIDITY OBSERVATIONS.

INZ001>003-010>013-019-020-201200-
NORTHWEST INDIANA

CITY           SKY/WX    TMP DP  RH WIND       PRES   REMARKS
GARY /AIRPORT/ CLEAR     64  59  82 VRB3      30.02S
KNOX *+        CLEAR     54  54 100 CALM      30.05R
LA PORTE +     CLEAR     55  53  94 CALM      30.06R
MICHIGAN CITY+ CLEAR     55  55 100 CALM      30.05R FOG
MONTICELLO +   CLEAR     62  61  95 CALM      30.04R
RENSSELAER +   CLEAR     61  55  82 NE3       30.05R
VALPARAISO     CLEAR     58  57  97 CALM      30.06R FOG

$$

LMZ046-743>745-201200-
SOUTHERN LAKE MICHIGAN

STATION/POSITION TIME  TEMP    WIND        PRES    WAVE
                       AIR SEA DIR/SP/G            HT
                 (UTC) (F)     (DEG/KT/KT) (MB)    (FT)
BURNS HARBOR     1040   69     170/  5/  9 1017.3R
MICHIGAN CITY    1040   66     130/  8/  9   N/A
5NW MICH CITY    1100   69 74  160/ 10/ 12   N/A     1

$$

INZ004-005-014>016-021>024-201200-
NORTH CENTRAL INDIANA

CITY           SKY/WX    TMP DP  RH WIND       PRES   REMARKS
GOSHEN         CLEAR     57  54  89 CALM      30.07R
LOGANSPORT +   CLEAR     59  59 100 CALM      30.06R
PERU/GRISSOM   PTCLDY    63  60  93 CALM      30.04R
ROCHESTER +    CLEAR     59  59 100 CALM      30.06R
SOUTH BEND     CLEAR     56  56 100 CALM      30.07R
WARSAW +       CLEAR     59  57  94 CALM      30.06R

$$

INZ006>009-017-018-025>027-201200-
NORTHEAST INDIANA

CITY           SKY/WX    TMP DP  RH WIND       PRES   REMARKS
AUBURN +         N/A     57  55  94 CALM      30.08R FOG
FORT WAYNE     PTCLDY    59  57  93 CALM      30.06R
HUNTINGTON +   CLEAR     57  56  96 CALM      30.05R FOG

$$

INZ028-029-035-036-043>045-051>053-201200-
WEST CENTRAL INDIANA

CITY           SKY/WX    TMP DP  RH WIND       PRES   REMARKS
GREENCASTLE +  CLEAR     63  61  94 CALM      30.05R
LAFAYETTE      CLEAR     62  61  96 CALM      30.03R
TERRE HAUTE    CLEAR     63  61  93 CALM      30.03R

$$

INZ030>032-037>040-046>048-054>057-064-065-201200-
CENTRAL INDIANA

CITY           SKY/WX    TMP DP  RH WIND       PRES   REMARKS
CP ATTERBURY + FOG       63  63 100 CALM      30.05R VSB 3/4
COLUMBUS       CLEAR     66  64  94 CALM      30.04
FRANKFORT +    CLOUDY    64  61  92 CALM      30.06R
GREENWOOD *+   CLEAR     67  63  87 CALM      30.05R
INDIANAPOLIS   PTCLDY    69  63  81 E5        30.03R
-EAGLE CREEK   CLEAR     66  60  81 CALM      30.03R
KOKOMO +       CLEAR     61  59  93 E3        30.06R
MT COMFORT *+  PTCLDY    63  61  94 CALM      30.04S
SHELBYVILLE    PTCLDY    65  61  87 CALM      30.04R
ZIONSVILLE +   CLEAR     62  60  94 CALM      30.06R

$$

INZ033-034-041-042-049-050-058-059-201200-
EAST CENTRAL INDIANA

CITY           SKY/WX    TMP DP  RH WIND       PRES   REMARKS
MUNCIE         PTCLDY    69  59  70 S6        30.06R
RICHMOND +     CLEAR     61  61 100 E6        30.08R

$$

INZ060-061-067>069-081>083-085>088-201200-
SOUTHWEST INDIANA

CITY           SKY/WX    TMP DP  RH WIND       PRES   REMARKS
EVANSVILLE     CLEAR     68  67  96 CALM      30.02R FOG
HUNTINGBURG +  FOG       66  66 100 CALM      30.03R VSB 3/4
WASHINGTON +   CLEAR     65  63  94 MISG      30.02R

$$

INZ062-063-066-070>080-084-089>092-201200-
SOUTH CENTRAL AND SOUTHEAST INDIANA

CITY           SKY/WX    TMP DP  RH WIND       PRES   REMARKS
BEDFORD +      CLEAR     66  63  88 CALM      30.04R FOG
BLOOMINGTON    FOG       63  60  90 CALM      30.04R VSB 1/4
MADISON *+     CLEAR     64  64 100 CALM      30.07R
NORTH VERNON + CLEAR     66  64  94 SE3       30.05R
SEYMOUR +      FOG       66  66 100 CALM      30.03R VSB 1/2

$$




USA.gov is the U.S. government's official web portal to all federal, state and local government web resources and services.